Location: Chamberlain Observatory
(39.0028°N, 90.1630°W)
Time: 20:52:04
(UTC-05:00)

Daily predictions for brighter satellites

Satellite Brightness Start Highest point End
(mag) Time Altitude Azimuth Time Altitude Azimuth Time Altitude Azimuth
Cosmos 968 Rocket 4.0 20:53:33 10° SSW 20:58:42 68° WNW 21:03:56 10° NNE
SJ-11-01 4.4 20:57:59 10° SSE 21:02:38 64° ENE 21:07:20 10° N
Cosmos 2219 Rocket 4.3 21:01:24 10° NNE 21:03:39 12° NE 21:05:55 10° ENE
Cosmos 1743 Rocket 4.1 21:04:09 10° SSW 21:08:36 67° W 21:13:03 10° N
Meteor 1-21 Rocket 4.2 21:03:51 10° S 21:09:23 88° E 21:14:57 10° N
Cosmos 1500 Rocket 3.6 21:09:51 10° S 21:14:12 86° W 21:18:39 10° N
S3M 4.2 21:10:39 10° N 21:16:46 75° W 21:22:52 10° S
Cosmos 2228 Rocket 4.1 21:12:33 10° NNW 21:16:54 49° W 21:21:15 10° SSW
Cosmos 1437 3.3 21:15:46 10° SSE 21:18:50 38° E 21:21:55 10° NNE
Cosmos 1328 4.4 21:16:17 10° SSE 21:19:53 36° E 21:23:32 10° NNE
Cosmos 1726 4.2 21:19:11 10° NE 21:21:21 15° ENE 21:23:25 10° ESE
ATLAS 2AS CENTAUR R/B 4.4 21:18:23 10° SE 21:21:43 14° E 21:25:08 10° ENE
Envisat 3.1 21:20:00 10° SSE 21:25:00 65° ENE 21:30:03 10° N
ERS-1 Rocket 3.2 21:21:05 10° S 21:26:05 72° WSW 21:31:09 10° NNW
Cosmos 2219 3.4 21:22:12 10° S 21:27:45 53° ESE 21:33:20 10° NNE
Delta 2 Rocket 3.2 21:25:29 10° WSW 21:29:01 46° S 21:31:53 13° ESE
deb Chang Zheng 4 3.7 21:27:25 10° N 21:31:46 78° WNW 21:36:06 10° SSW
BREEZE M DEB (TANK) 3.9 21:32:13 10° WSW 21:33:32 14° SSW 21:35:24 10° SSE
Cosmos 2237 Rocket 4.2 21:32:10 10° NNE 21:35:22 15° NE 21:38:34 10° E
SL-23 DEB 4.3 21:32:32 10° NW 21:37:49 58° NNE 21:40:32 16° ESE
Cosmos 2322 3.7 21:32:14 10° NNW 21:37:59 86° ENE 21:43:02 13° SSE
Cosmos 2322 Rocket 3.8 21:33:28 10° NW 21:38:20 31° WSW 21:43:11 10° SSW
Cosmos 2112 Rocket 4.1 21:33:52 10° NNW 21:39:06 66° ENE 21:43:24 15° SSE
Cosmos 2151 2.9 21:36:31 10° S 21:40:42 82° E 21:44:55 10° N
SL-14 R/B 4.2 21:40:06 17° SE 21:42:24 30° E 21:45:56 10° NNE
Meteor 1-4 Rocket 4.4 21:41:26 10° NNE 21:44:05 18° ENE 21:45:29 15° E
NOSS 3-1 (C) 3.4 21:39:25 10° SSW 21:45:07 62° ESE 21:51:23 10° NE
Cosmos 2298 Rocket 4.3 21:40:54 10° S 21:45:56 45° ESE 21:51:00 10° NNE
Terra 3.8 21:43:25 10° E 21:45:58 15° ENE 21:48:38 10° NNE
Nimbus 7 Rocket 4.5 21:40:52 10° NNE 21:46:44 83° WNW 21:52:36 10° SSW
Cosmos 2360 Rocket 2.3 21:41:49 10° NNW 21:47:29 78° WSW 21:52:21 14° SSE
Aureole 3 4.4 21:42:09 10° S 21:48:56 81° E 21:54:22 10° N
MetOp-B 4.2 21:44:55 15° SSE 21:49:24 69° ENE 21:54:44 10° N
SL-16 R/B 4.0 21:45:09 10° NW 21:49:50 27° WSW 21:54:31 10° SSW
Sich 1 3.7 21:48:46 19° SSE 21:51:28 37° E 21:55:32 10° NNE
CZ-4 SHROUD 3.2 21:51:29 20° S 21:53:32 85° W 21:56:41 10° NNW
USA 245 3.2 21:53:37 27° E 21:54:04 30° ENE 21:56:11 10° N
DELTA 2 R/B (1) 3.8 21:49:02 10° W 21:54:28 58° SSW 21:58:07 21° SE
Cosmos 1908 4.4 21:51:22 10° NNW 21:55:04 41° W 21:58:45 10° SSW
Cosmos 1633 Rocket 3.6 21:52:39 20° SSE 21:55:09 38° E 21:59:13 10° NNE
SWAS 4.4 21:50:51 10° NNW 21:55:11 90° W 21:58:00 21° SSE
Cosmos 2058 2.8 21:52:03 12° S 21:55:46 72° E 21:59:52 10° NNE
OAO 2 Rocket 3.9 21:54:46 10° SW 21:59:41 39° SSE 22:03:20 17° ESE
Cosmos 1151 Rocket 4.0 21:56:30 10° NNW 22:00:38 46° W 22:04:47 10° SSW
Cosmos 1626 4.2 22:01:03 13° E 22:01:03 13° E 22:02:47 10° ENE
Cosmos 1674 4.4 21:58:31 10° SW 22:02:00 33° WNW 22:05:32 10° NNW
SL-08 RB Rocket 4.1 22:06:50 26° SE 22:09:01 47° ENE 22:13:20 10° N
CZ-4 R/B 4.0 22:05:24 10° NNE 22:10:15 56° E 22:13:19 21° S
Cosmos 1805 Rocket 3.6 22:06:22 11° S 22:10:37 80° W 22:15:04 10° N
H-2A R/B 3.1 22:08:02 21° ESE 22:10:43 32° ENE 22:15:30 10° N
CZ-4B R/B 3.5 22:06:45 10° NNE 22:12:03 84° ESE 22:17:02 11° SSW
Cosmos 2227 Rocket 2.9 22:11:30 25° SE 22:13:35 32° ESE 22:18:33 10° NE
Meteor 1-11 4.2 22:07:49 10° S 22:13:37 85° E 22:19:22 10° N
YAOGAN 6 2.7 22:12:45 27° S 22:14:38 74° WSW 22:18:16 10° NNW
Tiangong 1 0.9 22:12:12 10° WSW 22:15:18 90° E 22:17:13 21° ENE
Cosmos 1680 Rocket 4.3 22:10:29 10° NNW 22:15:31 48° WSW 22:19:31 16° S
Cosmos 1300 2.6 22:12:11 10° N 22:16:02 86° W 22:17:53 30° S
Cosmos 2315 Rocket 4.2 22:10:37 10° NNW 22:16:47 72° W 22:21:57 15° S
SPOT 1/Viking Rocket 3.5 22:19:48 24° S 22:22:57 83° WSW 22:28:09 10° NNW
H-2A R/B 4.3 22:23:37 10° SW 22:27:02 21° W 22:30:27 10° NW
Cosmos 1898 Rocket 3.5 22:22:05 10° SSW 22:27:15 86° WNW 22:32:30 10° NNE
Cosmos 2333 Rocket 2.9 22:23:12 10° N 22:28:40 42° ENE 22:31:18 27° ESE
SL-16 R/B 4.1 22:25:10 10° N 22:28:57 18° NE 22:32:01 12° E
DELTA 2 R/B(2) 3.8 22:27:41 10° W 22:29:22 66° NW 22:29:22 66° NW
IGS 5A 4.4 22:29:10 29° E 22:30:07 32° ENE 22:33:52 10° N
Cosmos 1707 Rocket 3.9 22:26:17 10° NNW 22:30:35 60° W 22:32:56 25° SSW
Cosmos 858 Rocket 4.5 22:27:44 12° SSW 22:32:38 85° WNW 22:37:52 10° NNE
Cosmos 1666 Rocket 4.0 22:29:56 17° SSW 22:33:10 61° W 22:37:34 10° N
Cosmos 220 Rocket 3.9 22:31:40 31° S 22:33:44 74° ESE 22:38:10 10° NNE
Cosmos 2150 Rocket 4.3 22:29:17 10° SSW 22:34:42 74° WNW 22:40:12 10° NNE
SPOT 5 4.4 22:32:35 12° SSW 22:36:09 29° W 22:40:20 10° NW
Cosmos 1455 3.0 22:35:04 10° N 22:38:36 35° ENE 22:38:49 35° E
Nadezhda 1 Rocket 4.1 22:33:42 10° N 22:39:42 59° E 22:42:17 34° SE
COSMOS 2428 3.1 22:34:51 10° NNW 22:40:26 59° WSW 22:43:19 28° S
Cosmos 2297 Rocket 2.7 22:39:29 34° SE 22:40:34 37° ESE 22:45:44 10° NE
SAR-Lupe-2 4.4 22:40:40 35° ENE 22:40:49 35° ENE 22:44:08 10° N
ARGOS 3.4 22:41:02 27° S 22:43:56 65° WSW 22:49:18 10° NNW
Cosmos 1470 Rocket 3.4 22:45:42 50° SSE 22:46:44 72° E 22:51:02 10° NNE
Cosmos 1933 Rocket 3.5 22:46:48 48° SSE 22:47:56 71° E 22:52:24 10° NNE
Cosmos 2219 Rocket 2.1 22:42:54 10° NNW 22:48:32 80° ENE 22:50:35 41° SSE
NOSS 3-1 (A) 3.9 22:43:21 10° SW 22:49:09 62° NW 22:55:37 10° NNE
Cosmos 1745 Rocket 3.9 22:47:13 26° S 22:50:56 89° W 22:57:09 10° N
Cosmos 1869 3.6 22:52:10 10° N 22:56:07 49° E 22:56:15 49° E
Cosmos 1726 3.6 22:53:26 10° NNW 22:56:49 31° W 22:58:06 25° SW
Cosmos 1709 Rocket 4.3 22:57:41 38° SE 22:59:17 46° E 23:05:03 10° NNE
DMSP B5D2-2 3.9 22:54:28 10° NNE 22:59:43 76° ESE 23:01:25 44° S
CZ-4C R/B 3.4 22:59:54 53° WSW 23:00:06 54° W 23:03:31 10° NNW
NOSS 0 Rocket 3.8 22:56:57 10° NNW 23:03:08 89° WSW 23:05:19 43° SSE
ERBS 2.6 23:05:20 67° N 23:05:20 67° N 23:08:31 10° NE
Landsat 7 4.2 23:05:56 41° SSW 23:07:19 58° W 23:12:02 10° NNW
Cosmos 1980 3.6 23:01:55 10° NNW 23:07:36 83° ENE 23:09:10 49° SSE
Cosmos 292 Rocket 4.3 23:03:32 10° NNW 23:08:08 51° WSW 23:09:18 41° SSW
ATLAS 2AS CENTAUR R/B 2.9 23:05:37 19° SSW 23:11:19 77° ESE 23:19:21 10° NE
Cosmos 1271 Rocket 4.0 23:11:12 10° NNW 23:14:38 31° W 23:15:19 29° WSW
Spot 2 4.3 23:09:34 10° NNE 23:14:41 90° SSE 23:15:54 53° SSW
Cosmos 1386 Rocket 4.4 23:12:52 36° SSW 23:15:29 79° W 23:21:31 10° N
Meteor 1-4 Rocket 4.4 23:16:12 10° NW 23:19:16 24° W 23:19:51 23° WSW
Cosmos 2237 Rocket 2.1 23:14:26 10° NNW 23:20:11 85° WSW 23:21:31 55° SSE
Cosmos 2082 3.9 23:19:48 26° SW 23:23:05 68° WNW 23:28:48 10° NNE
Terra 2.1 23:22:18 49° SW 23:23:11 57° W 23:27:53 10° NNW
COS B Rocket 4.3 23:21:39 10° NNE 23:24:36 37° ENE 23:24:36 37° ENE
Spot 4 3.9 23:26:34 59° SSW 23:27:17 69° WSW 23:32:09 10° NNW
Cosmos 2181 Rocket 4.1 23:21:12 10° N 23:27:33 63° E 23:29:09 48° SE
CARTOSAT-1 4.3 23:28:15 41° WSW 23:28:44 43° W 23:32:51 10° NNW
ATLAS 3B R/B 3.0 23:21:54 10° NNW 23:28:47 56° NE 23:31:15 37° ESE
Cosmos 1862 Rocket 4.0 23:25:07 10° NNW 23:29:20 51° W 23:29:42 50° WSW
Lacrosse 4 Rocket 2.4 23:25:17 10° NNW 23:29:27 38° ENE 23:29:44 38° ENE
Cosmos 1626 3.5 23:35:44 33° W 23:36:01 33° WNW 23:39:28 10° NNW
Cosmos 1900 4.4 23:34:29 10° NNW 23:39:26 64° ENE 23:39:47 62° E
OAO 2 Rocket 4.3 23:38:59 10° WSW 23:42:20 36° WSW 23:42:20 36° WSW
NOSS 2-3 (E) 4.1 23:46:41 59° E 23:46:41 59° E 23:51:33 10° NE
H-2A R/B 3.4 23:48:40 27° WSW 23:50:03 31° W 23:54:50 10° NW
Tiangong 1 4.1 23:49:08 10° WNW 23:49:21 11° WNW 23:49:21 11° WNW
COSMOS 2455 2.7 23:46:19 10° NNW 23:52:23 83° ENE 23:53:21 64° SE
Cosmos 1269 Rocket 3.9 23:48:50 10° NNW 23:54:09 80° WSW 23:54:28 76° SSW
Cosmos 1933 3.9 23:51:26 10° NNW 23:54:51 54° NW 23:54:51 54° NW
